NORTHEAST SUFFOLK  -  Winter Storm Watch Winter Storm Watch        NORTHERN NASSAU  -  Winter Storm Watch Winter Storm Watch        NORTHERN QUEENS  -  Winter Storm Watch Winter Storm Watch        NORTHWEST SUFFOLK  -  Winter Storm Watch Winter Storm Watch        SOUTHEAST SUFFOLK  -  Winter Storm Watch Winter Storm Watch        SOUTHERN NASSAU  -  Winter Storm Watch Winter Storm Watch        SOUTHERN QUEENS  -  Winter Storm Watch Winter Storm Watch        SOUTHWEST SUFFOLK  -  Winter Storm Watch Winter Storm Watch      

Active alerts

Northern Queens
  Details for Northern Queens Winter Storm Watch
Southern Queens
  Details for Southern Queens Winter Storm Watch
Northern Nassau
  Details for Northern Nassau Winter Storm Watch
Southern Nassau
  Details for Southern Nassau Winter Storm Watch
Northwest Suffolk
  Details for Northwest Suffolk Winter Storm Watch
Southwest Suffolk
  Details for Southwest Suffolk Winter Storm Watch
Northeast Suffolk
  Details for Northeast Suffolk Winter Storm Watch
Southeast Suffolk
  Details for Southeast Suffolk Winter Storm Watch


WXM80 ListenWXM80 Stop

You find our weather info also at:

UK Metoffice

WeatherCloud

Weather Underground

Northeastern Weather Network

AWEKAS

Citizen Weather Observer Program (CWOP)

HAMweather, WeatherForYou, PWS Weather


Weather Underground History page Text

Daily Summary for August 2, 2017 Units:  English    Metric   Both
« Previous Day
Next Day »
Daily Weekly Monthly Yearly Custom
  High: Low: Average:
Temperature: 87.7 °F 68.0 °F 75.8 °F
Dew Point: 77.3 °F 65.7 °F 70.7 °F
Humidity: 96 % 65 % 85 %
Wind Speed: 5.9 mph 0.0 mph 0.6 mph
Wind Gust: 10.4 mph - -
Wind:- - SSW
Pressure: 30.05 in 29.96 in -
Precipitation: 0.25 in    
Historical Graphs
 
 
Tabular Data for August 2, 2017
Time Temperature Dew Point Pressure Wind Wind Speed Wind Gust Humidity Rainfall Rate (Hourly)
00:04 75.3 °F 67.6 °F 29.99 in WSW 0.4 mph 2.3 mph 77 % 0.00 in
00:09 75.3 °F 68.0 °F 29.99 in WSW 0.6 mph 2.3 mph 78 % 0.00 in
00:12 75.2 °F 67.9 °F 29.99 in SE 0.3 mph 1.2 mph 78 % 0.00 in
00:17 75.2 °F 67.9 °F 29.99 in SSE 0.1 mph 1.2 mph 78 % 0.00 in
00:22 75.1 °F 68.1 °F 29.99 in Calm     79 % 0.00 in
00:27 75.1 °F 68.1 °F 29.99 in Calm   1.0 mph 79 % 0.00 in
00:32 75.0 °F 68.4 °F 29.99 in Calm     80 % 0.00 in
00:37 74.9 °F 68.7 °F 29.99 in WSW 0.2 mph 1.2 mph 81 % 0.00 in
00:42 74.8 °F 68.9 °F 29.98 in WSW 0.1 mph 1.2 mph 82 % 0.00 in
00:47 74.8 °F 68.9 °F 29.98 in WSW 0.2 mph 1.2 mph 82 % 0.00 in
00:52 74.7 °F 69.2 °F 29.99 in WSW 0.2 mph 1.2 mph 83 % 0.00 in
00:57 74.6 °F 69.4 °F 29.99 in South 0.2 mph 1.2 mph 84 % 0.00 in
01:02 74.5 °F 69.3 °F 29.99 in South 0.2 mph 1.2 mph 84 % 0.00 in
01:07 74.5 °F 69.7 °F 29.98 in Calm     85 % 0.00 in
01:12 74.4 °F 69.6 °F 29.99 in South 0.5 mph 1.2 mph 85 % 0.00 in
01:17 74.4 °F 69.6 °F 29.99 in South 0.4 mph 1.0 mph 85 % 0.00 in
01:22 74.3 °F 69.8 °F 29.99 in South 0.3 mph 2.3 mph 86 % 0.00 in
01:27 74.3 °F 69.8 °F 29.99 in Calm     86 % 0.00 in
01:32 74.3 °F 69.8 °F 29.98 in West 0.1 mph 1.0 mph 86 % 0.00 in
01:37 74.2 °F 70.1 °F 29.98 in Calm     87 % 0.00 in
01:42 74.2 °F 70.1 °F 29.99 in Calm     87 % 0.00 in
01:47 74.1 °F 70.0 °F 29.98 in WSW 0.1 mph 1.2 mph 87 % 0.00 in
01:48 74.2 °F 70.1 °F 29.98 in WSW 0.1 mph 1.2 mph 87 % 0.00 in
01:53 74.1 °F 70.0 °F 29.98 in Calm   1.0 mph 87 % 0.00 in
01:58 74.0 °F 69.9 °F 29.98 in Calm     87 % 0.00 in
02:03 74.0 °F 70.2 °F 29.98 in Calm     88 % 0.00 in
02:08 73.9 °F 69.8 °F 29.98 in WSW 0.2 mph 1.2 mph 87 % 0.00 in
02:13 73.9 °F 69.8 °F 29.98 in WSW 0.2 mph 1.2 mph 87 % 0.00 in
02:18 73.8 °F 69.7 °F 29.98 in Calm   1.2 mph 87 % 0.00 in
02:23 73.8 °F 70.0 °F 29.98 in Calm     88 % 0.00 in
02:28 73.7 °F 69.9 °F 29.99 in Calm     88 % 0.00 in
02:33 73.6 °F 69.8 °F 29.99 in Calm   1.2 mph 88 % 0.00 in
02:38 73.5 °F 69.7 °F 29.98 in Calm   2.3 mph 88 % 0.00 in
02:44 73.5 °F 70.1 °F 29.99 in Calm   1.2 mph 89 % 0.00 in
02:49 73.4 °F 70.0 °F 29.99 in Calm     89 % 0.00 in
02:54 73.3 °F 69.9 °F 29.98 in WSW 0.1 mph 1.2 mph 89 % 0.00 in
02:59 73.3 °F 69.9 °F 29.98 in WSW 0.1 mph 1.2 mph 89 % 0.00 in
03:04 73.2 °F 69.8 °F 29.98 in Calm   1.2 mph 89 % 0.00 in
03:09 73.1 °F 69.7 °F 29.98 in Calm     89 % 0.00 in
03:14 73.1 °F 69.7 °F 29.98 in Calm     89 % 0.00 in
03:19 73.0 °F 69.6 °F 29.98 in Calm     89 % 0.00 in
03:24 72.9 °F 69.5 °F 29.98 in Calm   1.0 mph 89 % 0.00 in
03:29 72.9 °F 69.5 °F 29.98 in Calm   1.0 mph 89 % 0.00 in
03:34 72.8 °F 69.4 °F 29.98 in Calm     89 % 0.00 in
03:39 72.7 °F 69.3 °F 29.98 in WSW 0.2 mph 1.2 mph 89 % 0.00 in
03:44 72.6 °F 69.5 °F 29.98 in WSW 0.1 mph   90 % 0.00 in
03:49 72.6 °F 69.5 °F 29.98 in Calm     90 % 0.00 in
03:54 72.5 °F 69.1 °F 29.98 in Calm   1.2 mph 89 % 0.00 in
03:55 72.5 °F 69.4 °F 29.98 in Calm   1.2 mph 90 % 0.00 in
04:00 72.4 °F 69.3 °F 29.98 in Calm     90 % 0.00 in
04:05 72.4 °F 69.3 °F 29.98 in Calm     90 % 0.00 in
04:10 72.3 °F 69.2 °F 29.98 in Calm     90 % 0.00 in
04:15 72.2 °F 69.1 °F 29.98 in Calm     90 % 0.00 in
04:20 72.2 °F 69.1 °F 29.98 in Calm     90 % 0.00 in
04:25 72.1 °F 69.0 °F 29.98 in Calm     90 % 0.00 in
04:30 72.0 °F 68.9 °F 29.98 in Calm     90 % 0.00 in
04:35 71.9 °F 68.8 °F 29.98 in Calm     90 % 0.00 in
04:38 71.9 °F 68.8 °F 29.98 in Calm     90 % 0.00 in
04:43 71.9 °F 68.8 °F 29.98 in Calm     90 % 0.00 in
04:48 71.7 °F 68.6 °F 29.98 in Calm     90 % 0.00 in
04:53 71.6 °F 68.5 °F 29.98 in Calm     90 % 0.00 in
04:58 71.5 °F 68.4 °F 29.98 in Calm     90 % 0.00 in
05:03 71.4 °F 68.3 °F 29.99 in Calm     90 % 0.00 in
05:08 71.3 °F 68.2 °F 29.98 in Calm     90 % 0.00 in
05:13 71.2 °F 68.1 °F 29.98 in Calm     90 % 0.00 in
05:18 71.2 °F 68.4 °F 29.99 in Calm     91 % 0.00 in
05:23 71.0 °F 68.2 °F 29.99 in Calm     91 % 0.00 in
05:29 70.9 °F 67.8 °F 29.99 in Calm     90 % 0.00 in
05:34 70.9 °F 68.1 °F 29.99 in Calm     91 % 0.00 in
05:39 70.8 °F 68.0 °F 29.99 in Calm     91 % 0.00 in
05:44 70.8 °F 68.0 °F 29.99 in Calm     91 % 0.00 in
05:49 70.7 °F 67.9 °F 29.99 in Calm     91 % 0.00 in
05:54 70.7 °F 68.3 °F 30.00 in Calm     92 % 0.00 in
05:59 70.6 °F 68.2 °F 30.00 in Calm     92 % 0.00 in
06:04 70.6 °F 68.2 °F 30.00 in Calm     92 % 0.00 in
06:09 70.6 °F 68.2 °F 30.00 in Calm     92 % 0.00 in
06:14 70.5 °F 68.1 °F 30.00 in Calm     92 % 0.00 in
06:19 70.5 °F 68.1 °F 30.00 in Calm     92 % 0.00 in
06:24 70.5 °F 68.1 °F 30.00 in Calm     92 % 0.00 in
06:29 70.6 °F 68.5 °F 30.00 in Calm     93 % 0.00 in
06:34 70.7 °F 68.6 °F 30.00 in Calm     93 % 0.00 in
06:39 70.7 °F 68.6 °F 29.99 in Calm     93 % 0.00 in
06:44 70.8 °F 69.0 °F 30.00 in Calm     94 % 0.00 in
06:49 70.8 °F 69.0 °F 30.00 in Calm     94 % 0.00 in
06:54 70.9 °F 69.1 °F 30.00 in Calm     94 % 0.00 in
06:59 70.9 °F 69.1 °F 30.00 in Calm     94 % 0.00 in
07:04 71.0 °F 69.2 °F 30.00 in Calm     94 % 0.00 in
07:09 71.0 °F 69.2 °F 30.00 in Calm     94 % 0.00 in
07:14 71.1 °F 69.3 °F 30.00 in Calm     94 % 0.00 in
07:20 71.2 °F 69.4 °F 30.00 in Calm     94 % 0.00 in
07:25 71.2 °F 69.4 °F 30.00 in Calm     94 % 0.00 in
07:30 71.4 °F 69.9 °F 30.01 in Calm     95 % 0.00 in
07:35 71.5 °F 70.0 °F 30.01 in Calm     95 % 0.00 in
07:40 71.7 °F 70.2 °F 30.01 in Calm     95 % 0.00 in
07:45 71.9 °F 70.4 °F 30.01 in Calm     95 % 0.00 in
07:50 72.1 °F 70.6 °F 30.01 in Calm     95 % 0.00 in
07:55 72.4 °F 71.2 °F 30.01 in Calm     96 % 0.00 in
08:00 72.5 °F 71.3 °F 30.01 in Calm     96 % 0.00 in
08:05 72.7 °F 71.5 °F 30.01 in Calm     96 % 0.00 in
08:10 73.1 °F 71.9 °F 30.01 in Calm     96 % 0.00 in
08:15 73.3 °F 72.1 °F 30.01 in Calm     96 % 0.00 in
08:20 73.7 °F 72.5 °F 30.01 in NW 0.1 mph 1.2 mph 96 % 0.00 in
08:25 74.0 °F 72.8 °F 30.01 in Calm     96 % 0.00 in
08:30 74.4 °F 73.2 °F 30.02 in Calm     96 % 0.00 in
08:35 74.5 °F 73.0 °F 30.02 in Calm     95 % 0.00 in
08:40 74.8 °F 73.0 °F 30.02 in NW 0.3 mph 1.2 mph 94 % 0.00 in
08:45 75.1 °F 72.6 °F 30.01 in SE 0.7 mph 1.2 mph 92 % 0.00 in
08:50 75.6 °F 72.8 °F 30.01 in SE 0.1 mph   91 % 0.00 in
08:55 76.0 °F 72.9 °F 30.01 in SE 0.3 mph 2.0 mph 90 % 0.00 in
09:01 76.4 °F 72.6 °F 30.01 in SE 0.3 mph 3.0 mph 88 % 0.00 in
09:06 76.9 °F 72.4 °F 30.01 in Calm   1.0 mph 86 % 0.00 in
09:11 77.2 °F 72.7 °F 30.01 in Calm   2.0 mph 86 % 0.00 in
09:16 77.6 °F 73.1 °F 30.01 in Calm   1.0 mph 86 % 0.00 in
09:21 77.9 °F 73.0 °F 30.01 in Calm   2.0 mph 85 % 0.00 in
09:26 78.3 °F 73.4 °F 30.01 in Calm   2.0 mph 85 % 0.00 in
09:31 78.6 °F 73.7 °F 30.01 in Calm   1.0 mph 85 % 0.00 in
09:36 78.9 °F 73.3 °F 30.02 in Calm   3.0 mph 83 % 0.00 in
09:41 79.2 °F 73.2 °F 30.02 in Calm   1.0 mph 82 % 0.00 in
09:46 79.5 °F 73.5 °F 30.02 in Calm   4.0 mph 82 % 0.00 in
09:48 79.5 °F 73.2 °F 30.02 in WSW 1.3 mph 4.6 mph 81 % 0.00 in
09:53 79.8 °F 73.4 °F 30.02 in WSW 1.2 mph 2.3 mph 81 % 0.00 in
09:58 80.1 °F 73.4 °F 30.02 in WSW 0.9 mph 3.5 mph 80 % 0.00 in
10:03 80.3 °F 73.6 °F 30.02 in West 0.9 mph 2.3 mph 80 % 0.00 in
10:08 80.6 °F 73.9 °F 30.02 in Calm     80 % 0.00 in
10:13 80.8 °F 74.4 °F 30.02 in SSE 0.3 mph 1.2 mph 81 % 0.00 in
10:18 81.0 °F 74.6 °F 30.02 in NNW 1.5 mph 3.5 mph 81 % 0.00 in
10:23 81.2 °F 74.8 °F 30.02 in North 0.9 mph 2.3 mph 81 % 0.00 in
10:28 81.2 °F 74.4 °F 30.02 in NNE 0.8 mph 3.5 mph 80 % 0.00 in
10:33 81.3 °F 74.9 °F 30.02 in East 2.0 mph 3.5 mph 81 % 0.00 in
10:38 81.7 °F 75.3 °F 30.02 in NNE 0.4 mph 3.5 mph 81 % 0.00 in
10:43 82.0 °F 75.2 °F 30.02 in North 2.0 mph 3.5 mph 80 % 0.00 in
10:48 82.8 °F 76.4 °F 30.02 in NNE 1.0 mph 3.0 mph 81 % 0.00 in
10:53 83.8 °F 76.6 °F 30.02 in NNE 4.0 mph 5.0 mph 79 % 0.00 in
10:58 84.1 °F 75.3 °F 30.02 in NNW 0.8 mph 3.5 mph 75 % 0.00 in
11:03 84.1 °F 75.7 °F 30.02 in NNW 1.5 mph 3.5 mph 76 % 0.00 in
11:08 84.3 °F 76.3 °F 30.02 in NNE 0.9 mph 2.3 mph 77 % 0.00 in
11:13 84.4 °F 75.6 °F 30.02 in NNE 0.7 mph 2.3 mph 75 % 0.00 in
11:18 84.6 °F 75.8 °F 30.02 in Calm   1.2 mph 75 % 0.00 in
11:23 84.8 °F 75.6 °F 30.02 in NE 0.6 mph 2.3 mph 74 % 0.00 in
11:28 85.1 °F 75.9 °F 30.02 in ENE 1.7 mph 3.5 mph 74 % 0.00 in
11:34 85.2 °F 75.1 °F 30.02 in NNE 0.8 mph 3.5 mph 72 % 0.00 in
11:39 85.2 °F 75.6 °F 30.02 in NW 0.5 mph 3.5 mph 73 % 0.00 in
11:44 85.5 °F 76.7 °F 30.02 in NNE 1.1 mph 2.3 mph 75 % 0.00 in
11:49 85.7 °F 76.0 °F 30.02 in NNE 1.8 mph 4.6 mph 73 % 0.00 in
11:54 86.1 °F 76.0 °F 30.02 in NNW 2.8 mph 3.5 mph 72 % 0.00 in
11:59 86.5 °F 76.4 °F 30.02 in NNE 0.5 mph 3.5 mph 72 % 0.00 in
12:04 86.8 °F 77.1 °F 30.02 in NE 1.3 mph 3.5 mph 73 % 0.00 in
12:09 87.0 °F 76.5 °F 30.01 in NNE 2.6 mph 5.8 mph 71 % 0.00 in
12:14 87.4 °F 76.8 °F 30.01 in ENE 0.9 mph 2.3 mph 71 % 0.00 in
12:19 87.7 °F 76.7 °F 30.01 in ENE 1.2 mph 4.0 mph 70 % 0.00 in
12:24 87.5 °F 76.5 °F 30.01 in North 2.6 mph 4.0 mph 70 % 0.00 in
12:29 87.7 °F 77.1 °F 30.01 in North 0.8 mph 1.2 mph 71 % 0.00 in
12:34 87.4 °F 75.5 °F 30.00 in NE 1.0 mph 1.2 mph 68 % 0.00 in
12:39 86.8 °F 75.8 °F 30.00 in ENE 0.6 mph 2.0 mph 70 % 0.00 in
12:45 86.8 °F 76.7 °F 30.00 in East 0.5 mph 1.2 mph 72 % 0.00 in
12:50 87.2 °F 76.2 °F 29.99 in North 1.1 mph 1.2 mph 70 % 0.00 in
12:55 87.4 °F 76.4 °F 29.99 in NE 0.1 mph 1.2 mph 70 % 0.00 in
13:00 87.3 °F 75.4 °F 29.99 in NE 1.5 mph 3.5 mph 68 % 0.00 in
13:05 86.7 °F 76.2 °F 29.99 in NE 0.1 mph 1.2 mph 71 % 0.00 in
13:10 85.8 °F 76.1 °F 29.99 in NE 0.7 mph 2.3 mph 73 % 0.00 in
13:15 84.9 °F 76.9 °F 29.99 in ENE 0.8 mph 2.3 mph 77 % 0.01 in
13:20 84.2 °F 77.0 °F 29.99 in North 5.1 mph 6.0 mph 79 % 0.04 in
13:25 82.8 °F 75.2 °F 29.99 in NW 2.5 mph 8.1 mph 78 % 0.06 in
13:30 82.3 °F 75.1 °F 29.99 in Calm     79 % 0.07 in
13:35 82.3 °F 77.0 °F 29.98 in NW 0.1 mph 1.2 mph 84 % 0.08 in
13:40 82.0 °F 76.7 °F 29.98 in Calm     84 % 0.09 in
13:45 81.6 °F 76.6 °F 29.98 in Calm   1.2 mph 85 % 0.10 in
13:50 81.2 °F 76.3 °F 29.98 in Calm     85 % 0.11 in
13:55 81.1 °F 77.2 °F 29.98 in Calm   1.2 mph 88 % 0.12 in
14:00 81.2 °F 77.3 °F 29.98 in NW 0.1 mph 1.2 mph 88 % 0.12 in
14:05 81.0 °F 76.8 °F 29.98 in Calm     87 % 0.13 in
14:10 81.0 °F 76.8 °F 29.98 in Calm     87 % 0.13 in
14:12 80.9 °F 76.7 °F 29.98 in Calm     87 % 0.13 in
14:17 80.8 °F 76.2 °F 29.99 in NW 0.3 mph 1.0 mph 86 % 0.12 in
14:22 80.6 °F 75.7 °F 29.99 in South 1.4 mph 2.3 mph 85 % 0.09 in
14:27 80.3 °F 74.3 °F 29.99 in WSW 4.7 mph 10.4 mph 82 % 0.09 in
14:32 79.9 °F 73.9 °F 29.99 in WNW 1.9 mph 8.1 mph 82 % 0.07 in
14:37 79.7 °F 73.3 °F 29.99 in West 2.5 mph 9.2 mph 81 % 0.06 in
14:42 79.8 °F 74.2 °F 29.98 in West 0.3 mph 1.2 mph 83 % 0.06 in
14:47 80.0 °F 73.3 °F 29.98 in West 3.5 mph 5.0 mph 80 % 0.06 in
14:52 80.2 °F 73.1 °F 29.98 in WNW 0.4 mph 1.2 mph 79 % 0.05 in
14:58 80.5 °F 73.0 °F 29.98 in Calm   1.2 mph 78 % 0.05 in
15:03 80.7 °F 73.6 °F 29.97 in WNW 0.1 mph   79 % 0.05 in
15:08 81.1 °F 74.3 °F 29.97 in Calm   1.2 mph 80 % 0.04 in
15:13 81.4 °F 73.9 °F 29.97 in Calm   2.3 mph 78 % 0.04 in
15:18 81.9 °F 74.7 °F 29.97 in West 1.2 mph 3.5 mph 79 % 0.03 in
15:23 82.5 °F 75.3 °F 29.96 in WSW 3.1 mph 5.8 mph 79 % 0.03 in
15:28 83.2 °F 74.8 °F 29.96 in SW 3.6 mph 5.8 mph 76 % 0.02 in
15:33 83.7 °F 73.7 °F 29.96 in SSW 2.6 mph 5.8 mph 72 % 0.03 in
15:38 84.2 °F 72.0 °F 29.96 in SE 1.0 mph 6.9 mph 67 % 0.03 in
15:43 84.5 °F 72.3 °F 29.96 in SSW 2.3 mph 4.6 mph 67 % 0.02 in
15:48 84.7 °F 73.0 °F 29.96 in WSW 1.4 mph 5.0 mph 68 % 0.02 in
15:53 84.7 °F 73.4 °F 29.96 in SE 0.7 mph 3.5 mph 69 % 0.02 in
15:58 84.4 °F 71.8 °F 29.96 in SSE 0.8 mph 3.5 mph 66 % 0.01 in
16:03 84.1 °F 71.1 °F 29.96 in SE 2.3 mph 9.2 mph 65 % 0.01 in
16:08 83.8 °F 71.2 °F 29.97 in SSW 0.1 mph 1.2 mph 66 % 0.01 in
16:13 83.7 °F 72.0 °F 29.97 in SSW 0.1 mph 1.2 mph 68 % 0.01 in
16:19 83.4 °F 71.3 °F 29.98 in SSE 0.5 mph 3.5 mph 67 % 0.01 in
16:24 83.2 °F 72.0 °F 29.98 in WSW 1.4 mph 3.0 mph 69 % 0.01 in
16:29 83.0 °F 71.8 °F 29.99 in SW 3.3 mph 5.8 mph 69 % 0.01 in
16:34 83.0 °F 71.8 °F 29.99 in SSW 2.3 mph 6.9 mph 69 % 0.00 in
16:39 82.9 °F 72.1 °F 30.00 in WSW 1.2 mph 5.8 mph 70 % 0.00 in
16:44 82.7 °F 71.9 °F 30.00 in WSW 0.4 mph 2.3 mph 70 % 0.00 in
16:49 82.7 °F 71.9 °F 30.00 in West 0.1 mph 2.3 mph 70 % 0.00 in
16:54 82.4 °F 70.8 °F 30.00 in SW 0.9 mph 6.9 mph 68 % 0.00 in
16:59 82.3 °F 71.1 °F 30.00 in SW 2.5 mph 9.2 mph 69 % 0.00 in
17:04 82.2 °F 71.4 °F 30.00 in SW 2.0 mph 5.0 mph 70 % 0.00 in
17:09 82.1 °F 72.2 °F 30.00 in SSW 3.3 mph 5.8 mph 72 % 0.00 in
17:14 82.0 °F 72.5 °F 30.01 in WNW 1.5 mph 8.1 mph 73 % 0.00 in
17:19 81.7 °F 72.2 °F 30.01 in East 1.7 mph 8.1 mph 73 % 0.00 in
17:24 81.3 °F 71.8 °F 30.01 in WSW 0.7 mph 5.8 mph 73 % 0.00 in
17:29 80.8 °F 70.9 °F 30.02 in WNW 4.0 mph 9.2 mph 72 % 0.00 in
17:34 80.2 °F 70.4 °F 30.02 in West 5.9 mph 10.4 mph 72 % 0.00 in
17:39 79.6 °F 69.8 °F 30.02 in WNW 3.2 mph 5.8 mph 72 % 0.00 in
17:44 79.1 °F 69.7 °F 30.02 in NNW 2.4 mph 5.8 mph 73 % 0.00 in
17:49 78.8 °F 70.2 °F 30.03 in WNW 0.2 mph 2.3 mph 75 % 0.00 in
17:54 78.5 °F 70.3 °F 30.02 in WNW 2.5 mph 4.0 mph 76 % 0.00 in
17:59 78.0 °F 70.6 °F 30.03 in WNW 3.7 mph 5.8 mph 78 % 0.00 in
18:04 77.6 °F 71.3 °F 30.02 in WNW 2.9 mph 5.8 mph 81 % 0.00 in
18:09 77.3 °F 71.4 °F 30.03 in West 0.7 mph 3.0 mph 82 % 0.00 in
18:14 76.8 °F 71.2 °F 30.03 in WSW 2.4 mph 4.6 mph 83 % 0.00 in
18:20 76.4 °F 71.2 °F 30.03 in WNW 1.5 mph 5.0 mph 84 % 0.01 in
18:25 75.8 °F 71.0 °F 30.04 in WSW 0.9 mph 4.6 mph 85 % 0.01 in
18:26 75.7 °F 70.9 °F 30.04 in WSW 1.7 mph 3.5 mph 85 % 0.01 in
18:31 75.4 °F 70.9 °F 30.04 in West 0.1 mph 1.0 mph 86 % 0.01 in
18:36 75.1 °F 70.6 °F 30.04 in West 2.0 mph 5.8 mph 86 % 0.01 in
18:41 74.8 °F 70.3 °F 30.03 in Calm   2.3 mph 86 % 0.01 in
18:46 74.4 °F 69.9 °F 30.03 in WNW 1.0 mph 4.6 mph 86 % 0.01 in
18:51 74.2 °F 69.7 °F 30.03 in Calm   1.0 mph 86 % 0.02 in
18:56 73.9 °F 69.8 °F 30.03 in Calm   1.2 mph 87 % 0.02 in
19:01 73.6 °F 69.5 °F 30.03 in NW 0.4 mph 2.3 mph 87 % 0.02 in
19:06 73.4 °F 69.3 °F 30.03 in NW 0.1 mph 1.2 mph 87 % 0.02 in
19:11 73.1 °F 69.0 °F 30.03 in NE 0.4 mph   87 % 0.02 in
19:16 72.8 °F 68.4 °F 30.04 in NE 0.4 mph 2.3 mph 86 % 0.02 in
19:21 72.6 °F 68.5 °F 30.03 in NNE 1.4 mph 3.5 mph 87 % 0.01 in
19:26 72.4 °F 68.3 °F 30.03 in NE 0.1 mph 2.3 mph 87 % 0.02 in
19:31 72.2 °F 68.4 °F 30.03 in ENE 0.1 mph 1.2 mph 88 % 0.02 in
19:36 72.0 °F 68.2 °F 30.02 in ENE 0.5 mph 1.2 mph 88 % 0.02 in
19:41 71.8 °F 68.7 °F 30.02 in ESE 0.4 mph 2.3 mph 90 % 0.02 in
19:47 71.5 °F 68.7 °F 30.02 in ESE 0.7 mph 2.3 mph 91 % 0.02 in
19:52 71.3 °F 68.5 °F 30.02 in ESE 0.8 mph 2.3 mph 91 % 0.01 in
19:57 71.0 °F 68.2 °F 30.02 in ESE 1.4 mph 2.3 mph 91 % 0.01 in
20:02 70.7 °F 67.9 °F 30.02 in ESE 0.3 mph 2.3 mph 91 % 0.02 in
20:07 70.5 °F 67.7 °F 30.02 in ESE 0.1 mph 1.2 mph 91 % 0.02 in
20:11 70.4 °F 67.6 °F 30.02 in Calm   1.2 mph 91 % 0.02 in
20:16 70.2 °F 67.4 °F 30.02 in Calm   1.2 mph 91 % 0.02 in
20:17 70.2 °F 67.4 °F 30.02 in Calm   1.2 mph 91 % 0.02 in
20:22 70.0 °F 67.3 °F 30.02 in ESE 0.1 mph 1.2 mph 91 % 0.02 in
20:27 69.9 °F 66.8 °F 30.02 in Calm     90 % 0.01 in
20:32 69.7 °F 66.6 °F 30.02 in Calm     90 % 0.01 in
20:37 69.6 °F 66.2 °F 30.02 in SE 0.5 mph 2.3 mph 89 % 0.01 in
20:42 69.6 °F 66.2 °F 30.02 in Calm     89 % 0.01 in
20:47 69.5 °F 66.1 °F 30.02 in SE 0.2 mph 1.2 mph 89 % 0.01 in
20:52 69.4 °F 66.0 °F 30.02 in Calm     89 % 0.02 in
20:57 69.4 °F 66.3 °F 30.03 in SE 0.1 mph 1.0 mph 90 % 0.02 in
21:02 69.2 °F 65.8 °F 30.03 in SE 0.1 mph 1.2 mph 89 % 0.01 in
21:07 69.1 °F 65.7 °F 30.03 in Calm     89 % 0.01 in
21:12 69.1 °F 65.7 °F 30.03 in Calm     89 % 0.01 in
21:17 69.1 °F 66.0 °F 30.03 in Calm     90 % 0.01 in
21:22 69.0 °F 65.9 °F 30.03 in Calm     90 % 0.01 in
21:27 69.0 °F 65.9 °F 30.04 in Calm     90 % 0.01 in
21:32 69.0 °F 65.9 °F 30.04 in Calm     90 % 0.01 in
21:37 68.9 °F 65.8 °F 30.04 in Calm     90 % 0.01 in
21:43 68.9 °F 65.8 °F 30.04 in Calm     90 % 0.01 in
21:48 68.9 °F 66.2 °F 30.04 in SE 0.2 mph 1.2 mph 91 % 0.02 in
21:53 68.8 °F 66.1 °F 30.04 in Calm     91 % 0.01 in
21:58 68.8 °F 66.1 °F 30.04 in Calm     91 % 0.01 in
22:03 68.8 °F 66.1 °F 30.04 in Calm     91 % 0.01 in
22:08 68.7 °F 66.3 °F 30.04 in Calm     92 % 0.01 in
22:13 68.7 °F 66.3 °F 30.04 in Calm     92 % 0.01 in
22:18 68.6 °F 66.2 °F 30.04 in Calm     92 % 0.01 in
22:23 68.6 °F 66.2 °F 30.04 in Calm     92 % 0.01 in
22:28 68.6 °F 66.2 °F 30.04 in Calm     92 % 0.01 in
22:33 68.5 °F 66.1 °F 30.04 in Calm     92 % 0.01 in
22:38 68.5 °F 66.1 °F 30.04 in Calm     92 % 0.01 in
22:43 68.5 °F 66.1 °F 30.04 in Calm     92 % 0.01 in
22:49 68.4 °F 66.0 °F 30.05 in Calm     92 % 0.00 in
22:54 68.3 °F 65.9 °F 30.05 in West 1.1 mph 3.5 mph 92 % 0.00 in
22:59 68.3 °F 65.9 °F 30.05 in West 0.3 mph 1.2 mph 92 % 0.00 in
23:04 68.3 °F 65.9 °F 30.05 in Calm     92 % 0.01 in
23:09 68.2 °F 65.8 °F 30.05 in Calm   1.2 mph 92 % 0.01 in
23:15 68.2 °F 65.8 °F 30.05 in Calm     92 % 0.01 in
23:20 68.1 °F 65.7 °F 30.05 in Calm   1.0 mph 92 % 0.01 in
23:25 68.1 °F 66.0 °F 30.05 in Calm     93 % 0.01 in
23:26 68.1 °F 66.0 °F 30.05 in Calm     93 % 0.01 in
23:27 68.1 °F 66.0 °F 30.05 in Calm     93 % 0.01 in
23:32 68.1 °F 66.0 °F 30.05 in Calm     93 % 0.01 in
23:33 68.1 °F 66.0 °F 30.05 in Calm     93 % 0.01 in
23:36 68.1 °F 66.0 °F 30.05 in Calm     93 % 0.01 in
23:41 68.1 °F 66.0 °F 30.05 in Calm     93 % 0.01 in
23:46 68.1 °F 66.0 °F 30.05 in Calm     93 % 0.01 in
23:51 68.1 °F 66.0 °F 30.05 in Calm     93 % 0.01 in
23:56 68.0 °F 65.9 °F 30.05 in Calm     93 % 0.01 in
Crab Meadow Weather
Compliments of Weather Underground - 3 mb

Script developed by  Jim McMurry - jmcmurry@mwt.net Adapted for the template by  Wim van der Kuil - Leuven-Template.eu

Weather Terms: Heat Advisory - Maximum heat index of 105 to 110°F with a minimum of 75°F for two or more consecutive days.